When you browse on this site, cookies collect data to enhance your experience and personalize the content and advertising you see.
Visit our Privacy Policy to learn more. By continuing to use the site, you agree to this use of cookies and data.
  • In Österreich
  • Länderverzeichnis
  • Für 7 Tage
  • Wassertemperatur
  • Wetterkarte
  • News
  • Widgets
  • user-avatar
    Anmelden

    Stündliche Wetter Kranewo

    Heute, 16 Oktober, Mittwoch

    Zeit Temperatur Niederschläge Wind Luftdruck Luftfeuchtigkeit
    00:00 +15°C° 0 mm 1 m/S 759 mmHg 93%
    01:00 +14°C° 0 mm 1 m/S 758 mmHg 93%
    02:00 +14°C° 0 mm 1 m/S 759 mmHg 93%
    03:00 +14°C° 0 mm 1 m/S 759 mmHg 93%
    04:00 +14°C° 0 mm 1 m/S 758 mmHg 94%
    05:00 +14°C° 0 mm 1 m/S 758 mmHg 94%
    06:00 +14°C° 0 mm 1 m/S 758 mmHg 92%
    07:00 +15°C° 0 mm 1 m/S 759 mmHg 90%
    08:00 +16°C° 0 mm 2 m/S 759 mmHg 87%
    09:00 +18°C° 0 mm 2 m/S 759 mmHg 78%
    10:00 +19°C° 0 mm 2 m/S 759 mmHg 69%
    11:00 +21°C° 0 mm 2 m/S 759 mmHg 60%
    12:00 +21°C° 0 mm 2 m/S 759 mmHg 57%
    13:00 +23°C° 0 mm 2 m/S 758 mmHg 53%
    14:00 +23°C° 0 mm 2 m/S 759 mmHg 54%
    15:00 +21°C° 0 mm 2 m/S 758 mmHg 60%
    16:00 +20°C° 0 mm 2 m/S 758 mmHg 66%
    17:00 +19°C° 0 mm 2 m/S 758 mmHg 72%
    18:00 +18°C° 0 mm 2 m/S 758 mmHg 77%
    19:00 +18°C° 0 mm 1 m/S 758 mmHg 82%
    20:00 +16°C° 0 mm 1 m/S 758 mmHg 87%
    21:00 +16°C° 0 mm 1 m/S 758 mmHg 87%
    22:00 +15°C° 0 mm 1 m/S 758 mmHg 88%
    23:00 +15°C° 0 mm 1 m/S 758 mmHg 89%

    Morgen, 17 Oktober, Donnerstag

    Zeit Temperatur Niederschläge Wind Luftdruck Luftfeuchtigkeit
    00:00 +15°C° 0 mm 1 m/S 758 mmHg 90%
    01:00 +15°C° 0 mm 1 m/S 758 mmHg 90%
    02:00 +14°C° 0 mm 0 m/S 758 mmHg 90%
    03:00 +14°C° 0 mm 1 m/S 758 mmHg 89%
    04:00 +14°C° 0 mm 1 m/S 758 mmHg 88%
    05:00 +14°C° 0 mm 1 m/S 758 mmHg 86%
    06:00 +15°C° 0 mm 1 m/S 758 mmHg 82%
    07:00 +16°C° 0 mm 1 m/S 758 mmHg 77%
    08:00 +16°C° 0 mm 1 m/S 758 mmHg 73%
    09:00 +19°C° 0 mm 1 m/S 759 mmHg 65%
    10:00 +21°C° 0 mm 1 m/S 759 mmHg 56%
    11:00 +23°C° 0 mm 1 m/S 759 mmHg 48%
    12:00 +24°C° 0 mm 1 m/S 759 mmHg 47%
    13:00 +24°C° 0 mm 1 m/S 759 mmHg 45%
    14:00 +25°C° 0 mm 1 m/S 758 mmHg 43%
    15:00 +24°C° 0 mm 1 m/S 758 mmHg 50%
    16:00 +22°C° 0 mm 1 m/S 758 mmHg 58%
    17:00 +21°C° 0 mm 1 m/S 758 mmHg 65%
    18:00 +20°C° 0 mm 1 m/S 758 mmHg 70%
    19:00 +19°C° 0 mm 1 m/S 758 mmHg 74%
    20:00 +16°C° 0 mm 0 m/S 759 mmHg 78%
    21:00 +16°C° 0 mm 0 m/S 759 mmHg 78%
    22:00 +15°C° 0 mm 0 m/S 759 mmHg 77%
    23:00 +15°C° 0 mm 0 m/S 759 mmHg 76%

    übermorgen, 18 Oktober, Freitag

    Zeit Temperatur Niederschläge Wind Luftdruck Luftfeuchtigkeit
    00:00 +15°C° 0 mm 0 m/S 759 mmHg 75%
    01:00 +15°C° 0 mm 0 m/S 759 mmHg 75%
    02:00 +16°C° 0 mm 1 m/S 759 mmHg 74%
    03:00 +16°C° 0 mm 1 m/S 759 mmHg 74%
    04:00 +15°C° 0 mm 1 m/S 758 mmHg 74%
    05:00 +15°C° 0 mm 1 m/S 758 mmHg 74%
    06:00 +16°C° 0 mm 1 m/S 759 mmHg 70%
    07:00 +18°C° 0 mm 1 m/S 759 mmHg 67%
    08:00 +18°C° 0 mm 1 m/S 759 mmHg 64%
    09:00 +20°C° 0 mm 1 m/S 759 mmHg 57%
    10:00 +22°C° 0 mm 1 m/S 759 mmHg 51%
    11:00 +23°C° 0 mm 1 m/S 759 mmHg 45%
    12:00 +24°C° 0 mm 1 m/S 759 mmHg 43%
    13:00 +24°C° 0 mm 1 m/S 758 mmHg 42%
    14:00 +25°C° 0 mm 2 m/S 758 mmHg 41%
    15:00 +23°C° 0 mm 2 m/S 758 mmHg 47%
    16:00 +22°C° 0 mm 1 m/S 758 mmHg 54%
    17:00 +21°C° 0 mm 1 m/S 758 mmHg 60%
    18:00 +20°C° 0 mm 1 m/S 758 mmHg 63%
    19:00 +19°C° 0 mm 1 m/S 758 mmHg 67%
    20:00 +18°C° 0 mm 1 m/S 758 mmHg 70%
    21:00 +18°C° 0 mm 1 m/S 758 mmHg 71%
    22:00 +16°C° 0 mm 1 m/S 758 mmHg 72%
    23:00 +16°C° 0 mm 1 m/S 759 mmHg 73%

    19 Oktober, Samstag

    Zeit Temperatur Niederschläge Wind Luftdruck Luftfeuchtigkeit
    00:00 +16°C° 0 mm 1 m/S 758 mmHg 72%
    01:00 +15°C° 0 mm 0 m/S 758 mmHg 71%
    02:00 +15°C° 0 mm 0 m/S 758 mmHg 70%
    03:00 +14°C° 0 mm 0 m/S 758 mmHg 69%
    04:00 +14°C° 0 mm 0 m/S 758 mmHg 67%
    05:00 +14°C° 0 mm 0 m/S 759 mmHg 65%
    06:00 +15°C° 0 mm 0 m/S 759 mmHg 63%
    07:00 +18°C° 0 mm 1 m/S 759 mmHg 61%
    08:00 +19°C° 0 mm 1 m/S 759 mmHg 58%
    09:00 +20°C° 0 mm 1 m/S 759 mmHg 54%
    10:00 +22°C° 0 mm 1 m/S 759 mmHg 50%
    11:00 +23°C° 0 mm 1 m/S 759 mmHg 46%
    12:00 +24°C° 0 mm 1 m/S 759 mmHg 45%
    13:00 +24°C° 0 mm 1 m/S 759 mmHg 44%
    14:00 +25°C° 0 mm 1 m/S 759 mmHg 43%
    15:00 +23°C° 0 mm 1 m/S 759 mmHg 50%
    16:00 +21°C° 0 mm 2 m/S 758 mmHg 56%
    17:00 +20°C° 0 mm 2 m/S 758 mmHg 62%
    18:00 +20°C° 0 mm 1 m/S 759 mmHg 65%
    19:00 +19°C° 0 mm 1 m/S 759 mmHg 68%
    20:00 +18°C° 0 mm 1 m/S 759 mmHg 71%
    21:00 +18°C° 0 mm 1 m/S 759 mmHg 72%
    22:00 +16°C° 0 mm 1 m/S 760 mmHg 73%
    23:00 +16°C° 0 mm 1 m/S 760 mmHg 73%

    20 Oktober, Sonntag

    Zeit Temperatur Niederschläge Wind Luftdruck Luftfeuchtigkeit
    00:00 +16°C° 0 mm 1 m/S 760 mmHg 74%
    01:00 +16°C° 0 mm 1 m/S 760 mmHg 74%
    02:00 +15°C° 0 mm 0 m/S 759 mmHg 74%
    03:00 +14°C° 0 mm 0 m/S 760 mmHg 72%
    04:00 +14°C° 0 mm 0 m/S 760 mmHg 71%
    05:00 +14°C° 0 mm 0 m/S 760 mmHg 69%
    06:00 +16°C° 0 mm 1 m/S 760 mmHg 67%
    07:00 +18°C° 0 mm 1 m/S 760 mmHg 64%
    08:00 +18°C° 0 mm 1 m/S 760 mmHg 62%
    09:00 +20°C° 0 mm 1 m/S 760 mmHg 57%
    10:00 +21°C° 0 mm 1 m/S 761 mmHg 52%
    11:00 +23°C° 0 mm 2 m/S 761 mmHg 47%
    12:00 +23°C° 0 mm 2 m/S 761 mmHg 46%
    13:00 +24°C° 0 mm 2 m/S 760 mmHg 46%
    14:00 +24°C° 0 mm 2 m/S 760 mmHg 45%
    15:00 +23°C° 0 mm 2 m/S 760 mmHg 51%
    16:00 +20°C° 0 mm 2 m/S 760 mmHg 57%
    17:00 +20°C° 0 mm 1 m/S 760 mmHg 64%
    18:00 +19°C° 0 mm 1 m/S 760 mmHg 68%
    19:00 +18°C° 0 mm 1 m/S 760 mmHg 72%
    20:00 +16°C° 0 mm 1 m/S 760 mmHg 76%
    21:00 +16°C° 0 mm 1 m/S 761 mmHg 78%
    22:00 +16°C° 0 mm 1 m/S 761 mmHg 79%
    23:00 +16°C° 0 mm 1 m/S 761 mmHg 81%

    21 Oktober, Montag

    Zeit Temperatur Niederschläge Wind Luftdruck Luftfeuchtigkeit
    00:00 +15°C° 0 mm 1 m/S 761 mmHg 81%
    01:00 +15°C° 0 mm 1 m/S 761 mmHg 82%
    02:00 +15°C° 0 mm 1 m/S 761 mmHg 83%
    03:00 +15°C° 0 mm 1 m/S 761 mmHg 83%
    04:00 +14°C° 0 mm 1 m/S 761 mmHg 83%
    05:00 +14°C° 0 mm 1 m/S 761 mmHg 82%
    06:00 +15°C° 0 mm 1 m/S 761 mmHg 79%
    07:00 +16°C° 0 mm 1 m/S 761 mmHg 76%
    08:00 +16°C° 0 mm 2 m/S 761 mmHg 73%
    09:00 +18°C° 0 mm 2 m/S 762 mmHg 64%
    10:00 +20°C° 0 mm 2 m/S 762 mmHg 55%
    11:00 +21°C° 0 mm 2 m/S 762 mmHg 46%
    12:00 +23°C° 0 mm 2 m/S 762 mmHg 45%
    13:00 +23°C° 0 mm 2 m/S 762 mmHg 43%
    14:00 +24°C° 0 mm 2 m/S 762 mmHg 41%
    15:00 +21°C° 0 mm 2 m/S 761 mmHg 49%
    16:00 +20°C° 0 mm 2 m/S 761 mmHg 57%
    17:00 +19°C° 0 mm 2 m/S 761 mmHg 64%
    18:00 +18°C° 0 mm 2 m/S 761 mmHg 69%
    19:00 +18°C° 0 mm 1 m/S 761 mmHg 73%
    20:00 +16°C° 0 mm 1 m/S 761 mmHg 77%
    21:00 +16°C° 0 mm 1 m/S 761 mmHg 77%
    22:00 +16°C° 0 mm 1 m/S 761 mmHg 76%
    23:00 +16°C° 0 mm 1 m/S 761 mmHg 76%
    Mehr zeigen